Location: Mahannah Oil Field
(37.4664°N, 96.6003°W)
Time: 05:55:45
(UTC+00:00)

Courier 1B Rocket - Pass Details

Date: 24 January 2021
Orbit: 920 x 1202 km, 28.3° (Epoch: 05 March)

Event Time Altitude Azimuth Distance (km) Brightness Sun altitude
Exits shadow 10:59:37 - 186° (S) 2,965 7.5 -30.8°
Reaches altitude 10° 11:01:19 10° 173° (S) 2,711 7.4 -30.5°
Maximum altitude 11:03:42 12° 151° (SSE) 2,590 7.5 -30.0°
Drops below altitude 10° 11:06:09 10° 129° (SE) 2,782 8.0 -29.6°
Sets 11:10:55 0° 101° (E) 3,813 9.3 -28.6°
